GW7025 Weather Reports


Display with metric or nautical units.
time (UTC)temp
F
wind
direction
speed
MPH
gust
MPH
rain 1hr
in
rain 24hr
in
rain mn
in
humidity
%
barometer
mb
20260507191517 86 110 6.0 7.0 0.00 0.00 0.00 73 1009.7
20260507191014 86 91 5.0 7.0 0.00 0.00 0.00 67 1009.6
20260507190511 86 137 6.0 8.0 0.00 0.00 0.00 65 1009.3
20260507190010 87 83 7.0 8.0 0.00 0.00 0.00 64 1009.3
20260507185508 88 53 4.0 4.0 0.00 0.00 0.00 63 1009.4
20260507185004 88 103 5.0 7.0 0.00 0.00 0.00 61 1009.2
20260507184503 89 66 8.0 8.0 0.00 0.00 0.00 61 1009.3
20260507184000 91 108 6.0 8.0 0.00 0.00 0.00 58 1009.5
20260507183456 91 67 9.0 10.0 0.00 0.00 0.00 57 1009.1
20260507182953 91 73 8.0 9.0 0.00 0.00 0.00 57 1009.1
20260507182449 91 115 9.0 10.0 0.00 0.00 0.00 56 1009.3
20260507181945 90 105 6.0 7.0 0.00 0.00 0.00 57 1009.3
20260507181442 91 170 8.0 9.0 0.00 0.00 0.00 57 1009.5
20260507180938 90 77 5.0 6.0 0.00 0.00 0.00 57 1009.6
20260507180435 91 124 6.0 7.0 0.00 0.00 0.00 58 1009.8
20260507175931 91 104 8.0 10.0 0.00 0.00 0.00 57 1009.6
20260507175428 91 42 9.0 10.0 0.00 0.00 0.00 58 1009.9
20260507174926 91 46 6.0 7.0 0.00 0.00 0.00 57 1009.7
20260507174423 91 139 5.0 9.0 0.00 0.00 0.00 58 1010.1
20260507173920 91 124 6.0 7.0 0.00 0.00 0.00 57 1010.0
20260507173417 91 86 4.0 6.0 0.00 0.00 0.00 59 1009.9
20260507172914 91 86 10.0 11.0 0.00 0.00 0.00 58 1010.4
20260507172410 90 120 6.0 7.0 0.00 0.00 0.00 60 1010.3
20260507171906 90 75 6.0 8.0 0.00 0.00 0.00 60 1010.3
20260507171403 90 99 6.0 7.0 0.00 0.00 0.00 59 1010.5
20260507170900 91 99 7.0 9.0 0.00 0.00 0.00 59 1010.3
20260507170357 91 86 8.0 9.0 0.00 0.00 0.00 58 1010.5
20260507165853 91 55 6.0 6.0 0.00 0.00 0.00 58 1010.7
20260507165349 91 60 8.0 10.0 0.00 0.00 0.00 57 1010.7
20260507164845 91 92 9.0 9.0 0.00 0.00 0.00 57 1010.9
20260507164342 91 69 7.0 8.0 0.00 0.00 0.00 57 1010.9
20260507163839 91 93 9.0 11.0 0.00 0.00 0.00 57 1011.2
20260507163337 91 52 5.0 7.0 0.00 0.00 0.00 58 1010.9
20260507162833 91 66 7.0 10.0 0.00 0.00 0.00 56 1011.1
20260507162329 90 79 8.0 9.0 0.00 0.00 0.00 57 1011.3
20260507161826 90 115 8.0 11.0 0.00 0.00 0.00 60 1011.1
20260507161322 90 62 7.0 8.0 0.00 0.00 0.00 58 1011.2
20260507160819 90 94 8.0 9.0 0.00 0.00 0.00 57 1011.2
20260507160315 91 54 9.0 11.0 0.00 0.00 0.00 56 1011.2
20260507155811 90 71 8.0 14.0 0.00 0.00 0.00 57 1011.3
20260507155307 91 112 7.0 9.0 0.00 0.00 0.00 58 1011.4
20260507154804 90 83 5.0 6.0 0.00 0.00 0.00 59 1011.5
20260507154301 90 71 2.0 2.0 0.00 0.00 0.00 60 1011.4
20260507153758 90 76 5.0 9.0 0.00 0.00 0.00 60 1011.3
20260507153254 90 73 10.0 10.0 0.00 0.00 0.00 59 1011.4
20260507152751 89 79 7.0 8.0 0.00 0.00 0.00 60 1011.3
20260507152248 90 87 8.0 8.0 0.00 0.00 0.00 59 1011.3
20260507151743 89 91 4.0 6.0 0.00 0.00 0.00 60 1011.5
20260507151240 89 131 6.0 10.0 0.00 0.00 0.00 58 1011.6
20260507150737 89 77 7.0 10.0 0.00 0.00 0.00 58 1011.6
20260507150234 89 124 7.0 10.0 0.00 0.00 0.00 60 1011.5
20260507145730 89 82 8.0 9.0 0.00 0.00 0.00 60 1011.5
20260507145226 89 93 6.0 9.0 0.00 0.00 0.00 61 1011.6
20260507144723 89 76 7.0 10.0 0.00 0.00 0.00 61 1011.6
20260507144221 89 125 4.0 7.0 0.00 0.00 0.00 61 1011.6
20260507143717 89 70 8.0 9.0 0.00 0.00 0.00 60 1011.7
20260507143215 88 94 4.0 6.0 0.00 0.00 0.00 61 1011.5
20260507142710 88 76 8.0 9.0 0.00 0.00 0.00 63 1011.5
20260507142207 88 69 5.0 7.0 0.00 0.00 0.00 64 1011.5
20260507141703 88 113 9.0 10.0 0.00 0.00 0.00 62 1011.6
20260507141200 88 77 9.0 9.0 0.00 0.00 0.00 62 1011.6
20260507140657 89 99 5.0 7.0 0.00 0.00 0.00 61 1011.7
20260507140154 87 53 5.0 6.0 0.00 0.00 0.00 63 1011.8
20260507135651 87 59 6.0 7.0 0.00 0.00 0.00 64 1011.7
20260507135148 89 118 6.0 8.0 0.00 0.00 0.00 62 1011.9
20260507134645 88 43 4.0 4.0 0.00 0.00 0.00 61 1011.7
20260507134141 87 113 5.0 7.0 0.00 0.00 0.00 62 1011.3
20260507133637 87 59 6.0 7.0 0.00 0.00 0.00 64 1011.7
20260507133135 86 80 5.0 6.0 0.00 0.00 0.00 64 1011.7
20260507132632 88 93 7.0 9.0 0.00 0.00 0.00 61 1011.7
20260507132127 85 43 2.0 2.0 0.00 0.00 0.00 65 1011.4
20260507131624 84 84 5.0 6.0 0.00 0.00 0.00 67 1011.6
20260507131122 85 64 5.0 6.0 0.00 0.00 0.00 67 1011.5
20260507130619 85 52 4.0 4.0 0.00 0.00 0.00 66 1011.5
20260507130117 86 65 3.0 3.0 0.00 0.00 0.00 65 1011.4
20260507125615 86 81 6.0 8.0 0.00 0.00 0.00 62 1011.3
20260507125112 86 78 3.0 3.0 0.00 0.00 0.00 64 1011.4
20260507124608 86 55 4.0 6.0 0.00 0.00 0.00 66 1011.3
20260507124107 86 87 6.0 8.0 0.00 0.00 0.00 65 1011.3
20260507123604 86 52 4.0 4.0 0.00 0.00 0.00 64 1011.2
20260507123101 85 67 6.0 7.0 0.00 0.00 0.00 66 1011.2
20260507122556 85 73 7.0 8.0 0.00 0.00 0.00 66 1011.1
20260507122052 85 70 7.0 9.0 0.00 0.00 0.00 66 1011.2
20260507121548 85 36 3.0 4.0 0.00 0.00 0.00 67 1010.7
20260507121044 85 59 3.0 4.0 0.00 0.00 0.00 66 1010.8
20260507120540 84 68 3.0 4.0 0.00 0.00 0.00 68 1011.0
20260507120038 84 49 4.0 6.0 0.00 0.00 0.00 69 1010.9
20260507115534 84 51 4.0 4.0 0.00 0.00 0.00 69 1010.6
20260507115030 84 52 4.0 6.0 0.00 0.00 0.00 68 1010.7
20260507114526 84 55 2.0 1.0 0.00 0.00 0.00 69 1010.7
20260507114023 83 79 2.0 3.0 0.00 0.00 0.00 69 1010.7
20260507113520 83 63 2.0 2.0 0.00 0.00 0.00 69 1010.6
20260507113017 84 54 2.0 2.0 0.00 0.00 0.00 67 1010.6
20260507112515 84 52 1.0 1.0 0.00 0.00 0.00 66 1010.8
20260507112011 83 348 0.0 0.0 0.00 0.00 0.00 67 1010.7
20260507111509 82 348 0.0 0.0 0.00 0.00 0.00 69 1010.6
20260507111004 82 347 1.0 1.0 0.00 0.00 0.00 69 1010.9
20260507110501 79 347 0.0 0.0 0.00 0.00 0.00 74 1010.8
20260507105958 77 347 0.0 0.0 0.00 0.00 0.00 80 1010.8
20260507105455 76 347 0.0 0.0 0.00 0.00 0.00 81 1010.7
20260507104951 76 347 0.0 0.0 0.00 0.00 0.00 81 1010.5
20260507104449 76 346 0.0 0.0 0.00 0.00 0.00 81 1010.6
20260507103944 75 346 0.0 0.0 0.00 0.00 0.00 83 1010.5
20260507103441 74 346 0.0 0.0 0.00 0.00 0.00 84 1010.6
20260507102937 74 346 0.0 1.0 0.00 0.00 0.00 85 1010.4
20260507102434 74 343 1.0 1.0 0.00 0.00 0.00 84 1010.2
20260507101931 74 22 0.0 1.0 0.00 0.00 0.00 85 1010.2
20260507101426 74 22 0.0 0.0 0.00 0.00 0.00 85 1010.1
20260507100922 73 22 1.0 1.0 0.00 0.00 0.00 85 1010.3
20260507100420 73 23 0.0 0.0 0.00 0.00 0.00 85 1009.9
20260507095918 73 27 0.0 0.0 0.00 0.00 0.00 85 1009.9
20260507095415 73 27 0.0 0.0 0.00 0.00 0.00 85 1010.0
20260507094912 73 27 0.0 0.0 0.00 0.00 0.00 85 1009.9
20260507094408 73 27 0.0 0.0 0.00 0.00 0.00 85 1009.9
20260507093905 73 27 0.0 0.0 0.00 0.00 0.00 85 1009.9
20260507093404 73 27 0.0 0.0 0.00 0.00 0.00 84 1010.0
20260507092902 74 27 0.0 0.0 0.00 0.00 0.00 84 1010.2
20260507092357 74 27 1.0 1.0 0.00 0.00 0.00 85 1010.1
20260507091854 74 27 0.0 0.0 0.00 0.00 0.00 84 1010.1
20260507091350 74 27 0.0 0.0 0.00 0.00 0.00 84 1009.9
20260507090846 74 27 0.0 0.0 0.00 0.00 0.00 84 1010.3
20260507090342 74 27 1.0 1.0 0.00 0.00 0.00 84 1010.1
20260507085840 74 27 0.0 0.0 0.00 0.00 0.00 84 1010.1
20260507085336 74 28 0.0 0.0 0.00 0.00 0.00 84 1010.1
20260507084834 74 29 0.0 0.0 0.00 0.00 0.00 84 1010.2
20260507084330 74 29 0.0 0.0 0.00 0.00 0.00 84 1010.1
20260507083828 74 30 0.0 0.0 0.00 0.00 0.00 84 1010.1
20260507083324 74 29 1.0 1.0 0.00 0.00 0.00 84 1010.1
20260507082820 74 29 1.0 1.0 0.00 0.00 0.00 84 1010.2
20260507082316 74 29 0.0 0.0 0.00 0.00 0.00 84 1010.1
20260507081813 74 29 0.0 0.0 0.00 0.00 0.00 84 1010.1
20260507081309 74 29 0.0 0.0 0.00 0.00 0.00 83 1010.1
20260507080806 74 29 0.0 0.0 0.00 0.00 0.00 83 1010.0
20260507080302 74 29 1.0 1.0 0.00 0.00 0.00 83 1009.9
20260507075757 74 29 1.0 0.0 0.00 0.00 0.00 84 1010.0
20260507075254 74 29 0.0 0.0 0.00 0.00 0.00 83 1009.9
20260507074750 74 30 1.0 1.0 0.00 0.00 0.00 83 1009.9
20260507074249 74 30 0.0 0.0 0.00 0.00 0.00 83 1009.7
20260507073745 74 32 0.0 0.0 0.00 0.00 0.00 83 1010.1
20260507073241 74 39 0.0 1.0 0.00 0.00 0.00 83 1010.0
20260507072739 74 24 0.0 0.0 0.00 0.00 0.00 83 1010.1
20260507072237 74 26 0.0 0.0 0.00 0.00 0.00 83 1010.1
20260507071734 74 26 0.0 0.0 0.00 0.00 0.00 83 1010.3
20260507071230 74 26 0.0 0.0 0.00 0.00 0.00 83 1010.2
20260507070727 74 26 0.0 0.0 0.00 0.00 0.00 82 1010.3
20260507070224 75 26 0.0 0.0 0.00 0.00 0.00 82 1010.2
20260507065721 75 26 1.0 1.0 0.00 0.00 0.00 82 1010.5
20260507065218 75 27 1.0 1.0 0.00 0.00 0.00 81 1010.4
20260507064715 75 27 0.0 0.0 0.00 0.00 0.00 81 1010.4
20260507064214 75 27 0.0 0.0 0.00 0.00 0.00 81 1010.4
20260507063711 75 27 0.0 0.0 0.00 0.00 0.00 81 1010.7
20260507063207 75 27 0.0 0.0 0.00 0.00 0.00 82 1011.0
20260507062704 74 27 1.0 0.0 0.00 0.00 0.00 82 1010.7
20260507062202 74 27 0.0 0.0 0.00 0.00 0.00 82 1010.8
20260507061700 74 27 0.0 0.0 0.00 0.00 0.00 82 1010.8
20260507061157 74 27 0.0 0.0 0.00 0.00 0.00 82 1010.9
20260507060655 74 27 0.0 0.0 0.00 0.00 0.00 82 1011.0
20260507060151 74 27 0.0 0.0 0.00 0.00 0.00 82 1011.0
20260507055647 74 27 1.0 1.0 0.00 0.00 0.00 82 1011.0
20260507055143 74 27 0.0 0.0 0.00 0.00 0.00 82 1011.0
20260507054639 74 27 0.0 0.0 0.00 0.00 0.00 82 1011.3
20260507054136 74 27 0.0 1.0 0.00 0.00 0.00 82 1011.1
20260507053634 75 27 1.0 1.0 0.00 0.00 0.00 81 1011.3
20260507053132 75 28 0.0 0.0 0.00 0.00 0.00 81 1011.3
20260507052630 75 28 1.0 1.0 0.00 0.00 0.00 81 1011.5
20260507052126 75 29 0.0 0.0 0.00 0.00 0.00 81 1011.5
20260507051624 75 32 1.0 1.0 0.00 0.00 0.00 81 1011.6
20260507051121 75 29 1.0 1.0 0.00 0.00 0.00 81 1011.5
20260507050618 75 26 1.0 1.0 0.00 0.00 0.00 81 1011.6
20260507050114 75 28 1.0 1.0 0.00 0.00 0.00 81 1011.7
20260507045611 75 28 1.0 1.0 0.00 0.00 0.00 80 1011.7
20260507045108 75 36 1.0 1.0 0.00 0.00 0.00 80 1011.8
20260507044604 75 26 1.0 2.0 0.00 0.00 0.00 80 1011.7
20260507044102 75 24 1.0 1.0 0.00 0.00 0.00 80 1012.0
20260507043557 75 24 0.0 0.0 0.00 0.00 0.00 80 1012.1
20260507043055 75 16 1.0 2.0 0.00 0.00 0.00 80 1012.0
20260507042550 75 24 1.0 1.0 0.00 0.00 0.00 80 1012.2
20260507042046 75 24 1.0 1.0 0.00 0.00 0.00 81 1012.2
20260507041543 75 24 1.0 1.0 0.00 0.00 0.00 81 1012.2
20260507041040 75 29 1.0 1.0 0.00 0.00 0.00 81 1012.2
20260507040537 76 26 2.0 2.0 0.00 0.00 0.00 81 1012.4
20260507040032 76 15 1.0 1.0 0.00 0.00 0.00 81 1012.2
20260507035529 76 21 0.0 1.0 0.00 0.00 0.00 81 1012.2
20260507035026 77 22 1.0 1.0 0.00 0.00 0.00 80 1012.4
20260507034522 77 22 1.0 1.0 0.00 0.00 0.00 80 1012.3
20260507034020 77 21 0.0 1.0 0.00 0.00 0.00 80 1012.3
20260507033518 77 22 1.0 1.0 0.00 0.00 0.00 80 1012.5
20260507033015 77 22 0.0 1.0 0.00 0.00 0.00 80 1012.6
20260507032512 77 22 1.0 1.0 0.00 0.00 0.00 80 1012.5
20260507032008 77 22 1.0 1.0 0.00 0.00 0.00 80 1012.4
20260507031504 77 22 0.0 0.0 0.00 0.00 0.00 80 1012.6
20260507031002 77 22 0.0 0.0 0.00 0.00 0.00 80 1012.6
20260507030458 77 22 0.0 0.0 0.00 0.00 0.00 80 1012.5
20260507025955 77 23 0.0 0.0 0.00 0.00 0.00 80 1012.5
20260507025453 77 26 0.0 0.0 0.00 0.00 0.00 80 1012.6
20260507024951 77 27 1.0 1.0 0.00 0.00 0.00 80 1012.7
20260507024448 77 36 1.0 1.0 0.00 0.00 0.00 80 1012.8
20260507023943 78 37 1.0 1.0 0.00 0.00 0.00 80 1012.8
20260507023440 78 15 0.0 1.0 0.00 0.00 0.00 81 1012.5
20260507022938 78 15 1.0 1.0 0.00 0.00 0.00 81 1012.6
20260507022435 78 21 1.0 1.0 0.00 0.00 0.00 80 1012.5
20260507021930 78 357 2.0 2.0 0.00 0.00 0.00 80 1012.5
20260507021425 79 21 1.0 1.0 0.00 0.00 0.00 81 1012.5
20260507020924 79 23 1.0 1.0 0.00 0.00 0.00 81 1012.5
20260507020420 79 23 0.0 0.0 0.00 0.00 0.00 81 1012.5
20260507015917 79 22 1.0 1.0 0.00 0.00 0.00 81 1012.3
20260507015415 79 23 0.0 0.0 0.00 0.00 0.00 81 1012.5
20260507014912 79 46 1.0 1.0 0.00 0.00 0.00 81 1012.3
20260507014408 79 49 1.0 1.0 0.00 0.00 0.00 80 1012.2
20260507013904 79 49 1.0 1.0 0.00 0.00 0.00 80 1012.2
20260507013402 80 49 0.0 0.0 0.00 0.00 0.00 80 1012.2
20260507012859 80 49 1.0 1.0 0.00 0.00 0.00 80 1012.1
20260507012355 80 52 1.0 1.0 0.00 0.00 0.00 79 1012.0
20260507011852 80 19 1.0 1.0 0.00 0.00 0.00 79 1012.2
20260507011350 80 18 1.0 1.0 0.00 0.00 0.00 79 1012.0
20260507010849 80 19 1.0 1.0 0.00 0.00 0.00 79 1012.2
20260507010345 80 20 1.0 1.0 0.00 0.00 0.00 79 1012.2
20260507005842 80 30 0.0 0.0 0.00 0.00 0.00 78 1012.0
20260507005339 81 30 0.0 0.0 0.00 0.00 0.00 77 1011.9
20260507004836 81 33 0.0 0.0 0.00 0.00 0.00 76 1011.9
20260507004333 82 26 2.0 2.0 0.00 0.00 0.00 76 1011.6
20260507003830 82 38 1.0 1.0 0.00 0.00 0.00 76 1011.7
20260507003325 82 59 2.0 2.0 0.00 0.00 0.00 75 1011.8
20260507002820 82 45 1.0 1.0 0.00 0.00 0.00 75 1011.7
20260507002317 82 49 2.0 2.0 0.00 0.00 0.00 75 1011.5
20260507001815 82 55 2.0 2.0 0.00 0.00 0.00 76 1011.4
20260507001312 82 48 2.0 2.0 0.00 0.00 0.00 75 1011.5
20260507000808 82 43 2.0 2.0 0.00 0.00 0.00 75 1011.6
20260507000306 82 48 2.0 3.0 0.00 0.00 0.00 75 1011.6
20260506235800 82 57 2.0 3.0 0.00 0.00 0.00 75 1011.5
20260506235256 83 55 1.0 1.0 0.00 0.00 0.00 75 1011.4
20260506234753 83 66 3.0 3.0 0.00 0.00 0.00 74 1011.3
20260506234250 83 61 4.0 6.0 0.00 0.00 0.00 74 1011.2
20260506233748 82 49 3.0 4.0 0.00 0.00 0.00 74 1011.1
20260506233244 83 100 4.0 6.0 0.00 0.00 0.00 74 1011.1
20260506232736 83 93 6.0 7.0 0.00 0.00 0.00 74 1011.1
20260506232236 83 78 4.0 6.0 0.00 0.00 0.00 74 1011.1
20260506231733 83 70 4.0 4.0 0.00 0.00 0.00 74 1011.0
20260506231231 83 81 5.0 6.0 0.00 0.00 0.00 74 1011.0
20260506230728 83 53 4.0 4.0 0.00 0.00 0.00 74 1011.0
20260506230225 83 68 5.0 6.0 0.00 0.00 0.00 74 1010.9
20260506225721 83 107 7.0 8.0 0.00 0.00 0.00 74 1011.0
20260506225219 84 91 4.0 4.0 0.00 0.00 0.00 73 1010.7
20260506224715 84 98 5.0 7.0 0.00 0.00 0.00 73 1010.9
20260506224212 84 83 5.0 7.0 0.00 0.00 0.00 73 1010.6
20260506223708 84 111 5.0 6.0 0.00 0.00 0.00 72 1010.7
20260506222256 85 86 6.0 8.0 0.00 0.00 0.00 68 1010.6
20260506221754 85 86 6.0 8.0 0.00 0.00 0.00 68 1010.6
20260506221252 85 86 6.0 8.0 0.00 0.00 0.00 68 1010.6
20260506220749 85 103 4.0 7.0 0.00 0.00 0.00 68 1010.4
20260506220244 85 81 8.0 9.0 0.00 0.00 0.00 69 1010.6
20260506215741 86 62 7.0 11.0 0.00 0.00 0.00 68 1010.4
20260506215236 86 83 8.0 10.0 0.00 0.00 0.00 68 1010.6
20260506214733 86 87 4.0 4.0 0.00 0.00 0.00 68 1010.4
20260506214230 86 114 4.0 3.0 0.00 0.00 0.00 69 1010.4
20260506213728 86 91 5.0 7.0 0.00 0.00 0.00 67 1010.5
20260506213225 86 101 6.0 7.0 0.00 0.00 0.00 67 1010.3
20260506212723 86 103 7.0 7.0 0.00 0.00 0.00 66 1010.5
20260506212218 86 116 6.0 7.0 0.00 0.00 0.00 66 1010.5
20260506211713 87 107 9.0 11.0 0.00 0.00 0.00 64 1010.3
20260506211210 87 73 9.0 9.0 0.00 0.00 0.00 65 1010.3
20260506210707 87 111 7.0 8.0 0.00 0.00 0.00 64 1009.9
20260506210204 88 167 9.0 10.0 0.00 0.00 0.00 63 1010.1
20260506205701 88 67 6.0 7.0 0.00 0.00 0.00 63 1010.3
20260506205156 88 113 5.0 6.0 0.00 0.00 0.00 61 1010.0
20260506204654 89 89 5.0 7.0 0.00 0.00 0.00 61 1010.1
20260506204150 88 77 6.0 8.0 0.00 0.00 0.00 61 1010.1
20260506203649 88 139 6.0 9.0 0.00 0.00 0.00 61 1010.3
20260506203145 88 132 8.0 9.0 0.00 0.00 0.00 61 1010.1
20260506202643 88 84 9.0 10.0 0.00 0.00 0.00 60 1010.1
20260506202139 89 89 8.0 8.0 0.00 0.00 0.00 57 1010.2
20260506201636 89 64 7.0 9.0 0.00 0.00 0.00 59 1010.0
20260506201133 89 103 4.0 4.0 0.00 0.00 0.00 57 1010.1
20260506200629 89 127 6.0 7.0 0.00 0.00 0.00 58 1010.2
20260506200126 89 69 6.0 7.0 0.00 0.00 0.00 57 1010.2
20260506195623 89 70 7.0 8.0 0.00 0.00 0.00 56 1010.3
20260506195119 89 108 7.0 8.0 0.00 0.00 0.00 57 1010.3
20260506194616 90 43 5.0 6.0 0.00 0.00 0.00 55 1010.2
20260506194113 90 103 7.0 8.0 0.00 0.00 0.00 54 1010.4
20260506193610 90 41 5.0 7.0 0.00 0.00 0.00 56 1010.4
20260506193108 90 110 6.0 8.0 0.00 0.00 0.00 56 1010.5
20260506192605 90 119 5.0 6.0 0.00 0.00 0.00 53 1010.6
20260506192100 89 59 7.0 9.0 0.00 0.00 0.00 57 1010.3